Weather Roundup
Issued by NWS

Home | Current Version | Previous Version | Graphics & Text | Print | Product List | Glossary Off
Versions: 1 2 3 4 5 6 7 8 9 10 11 12 13 14 15 16 17 18 19 20 21 22 23 24 25 26 27 28 29 30 31 32 33 34 35 36 37 38 39 40 41 42 43 44 45 46 47 48 49 50

000
NZUS93 KARX 300159
HRRWXR

CURRENT HOURLY OBSERVATIONS ACROSS
MUCH OF THE UPPER MISSISSIPPI VALLEY
NATIONAL WEATHER SERVICE LA CROSSE WI
800 PM CST THU JAN 29 2015


...SOUTHEAST MINNESOTA...


CITY           SKY/WX    TMP DP  RH WIND       PRES   REMARKS
ROCHESTER      CLOUDY    23  15  71 N22       30.38R WCI   8
ROCHESTER/MAYO FAIR      24  13  62 NW15G26   30.39R WCI  11
WINONA         MOCLDY    28  18  64 NW15G24   30.41R WCI  17
AUSTIN         CLOUDY    23  16  74 NW17G25   30.41R WCI   9
ALBERT LEA     PTCLDY    21  16  79 NW9G18    30.43R WCI  11
DODGE CENTER   PTCLDY    21  16  79 N16G26    30.40R WCI   7
PRESTON        MOCLDY    23  14  69 N21G29    30.37R WCI   8
OWATONNA       CLEAR     21  14  73 NW16      30.43R WCI   7
FARIBAULT      CLEAR     21  16  79 NW9G18    30.44R WCI  11
$$

...ELSEWHERE IN MINNESOTA...


CITY           SKY/WX    TMP DP  RH WIND       PRES   REMARKS
MINNEAPOLIS    PTCLDY    20   8  60 N13G28    30.48R WCI   7
INTNL FALLS    CLEAR      0  -5  79 NW5       30.47R WCI -10
DULUTH         MOCLDY     9   0  67 NW13      30.40R WCI  -7
RED WING       CLEAR     21   9  58 N14G22    30.44R WCI   8
REDWOOD FALLS  CLEAR     18  10  71 NW9G21    30.52R WCI   7
MANKATO        CLEAR     19  12  73 NW21G26   30.47R WCI   3
WORTHINGTON    MOCLDY    19  14  79 N12       30.49S WCI   7
FAIRMONT       CLEAR     19   9  63 NW17G25   30.47R WCI   4
$$

...SOUTHWEST WISCONSIN...


CITY           SKY/WX    TMP DP  RH WIND       PRES   REMARKS
LA CROSSE      CLOUDY    28  16  60 NW14      30.36R WCI  17
PRAIRIE DU CHI CLOUDY    30  16  55 NW20G26   30.34R WCI  17
BOSCOBEL       CLOUDY    30  15  53 NW9G20    30.35R WCI  22
LONE ROCK      NOT AVBL
PLATTEVILLE    CLOUDY    31  22  71 W15G23    30.28R WCI  20
FORT MC COY    CLOUDY    28  15  59 NW17      30.34R WCI  15
VIROQUA        CLOUDY    26  17  67 NW20G25   30.30R WCI  13
WIS DELLS      NOT AVBL
$$

...ELSEWHERE IN WISCONSIN...


CITY           SKY/WX    TMP DP  RH WIND       PRES   REMARKS
MILWAUKEE      CLOUDY    33  17  51 N18G25    30.19R WCI  22
MADISON        FLURRIES  31  18  58 NW14G25   30.25R WCI  21
GREEN BAY      CLOUDY    25  13  60 N13G22    30.25R WCI  14
EAU CLAIRE     CLOUDY    22  11  62 NW12      30.38R WCI  10
BLACK RVR FLS  CLOUDY    27  13  56 N13G22    30.33R WCI  16
MEDFORD        FLURRIES  20  12  72 NW20      30.27R WCI   4
WAUSAU         CLOUDY    22  13  68 N12G20    30.26R WCI  10
WIS RAPIDS     CLOUDY    26  12  55 NW18G24   30.29R WCI  13
MARSHFIELD     CLOUDY    23  12  62 NW22      30.29R WCI   8
RICE LAKE      CLOUDY    18   8  65 NW13      30.42R WCI   5
$$

...NORTHEAST IOWA...


CITY           SKY/WX    TMP DP  RH WIND       PRES   REMARKS
DECORAH        CLOUDY    27  16  63 NW17G30   30.35R WCI  14
MASON CITY     CLOUDY    22  16  78 NW23G32   30.44R WCI   6
CHARLES CITY   CLOUDY    25  19  80 N22       30.40R WCI  10
OELWEIN        CLOUDY    27  18  69 NW26G35   30.38R WCI  11
$$

...ELSEWHERE IN IOWA...


CITY           SKY/WX    TMP DP  RH WIND       PRES   REMARKS
DES MOINES     MOCLDY    31  20  63 N15G23    30.47R WCI  20
IOWA CITY      CLOUDY    31  22  69 NW15      30.40R WCI  20
FORT DODGE     MOCLDY    25  18  74 NW13      30.48R WCI  13
$$

...NORTHERN ILLINOIS...


CITY           SKY/WX    TMP DP  RH WIND       PRES   REMARKS
CHICAGO-OHARE  CLOUDY    34  21  59 NW12      30.20R WCI  25
CHICAGO-MIDWAY CLOUDY    36  23  59 NW17      30.21R WCI  26
MOLINE         CLOUDY    33  22  63 NW24G35   30.33R WCI  20
ROCKFORD       CLOUDY    34  22  61 NW13      30.26R WCI  25
PEORIA         CLOUDY    35  25  66 NW10      30.32R WCI  27
$$

NOTE: "FAIR" INDICATES FEW OR NO CLOUDS BELOW 12,000 FEET WITH NO
SIGNIFICANT WEATHER AND/OR OBSTRUCTIONS TO VISIBILITY. WIND
SPEEDS ARE IN MILES-PER-HOUR.



USA.gov is the U.S. government's official web portal to all federal, state and local government web resources and services.